Regional Weather Roundup
Issued by NWS

Home | Current Version | Previous Version | Graphics & Text | Print | Product List | Glossary On
Versions: 1 2 3 4 5 6 7 8 9 10 11 12 13 14 15 16 17 18 19 20 21 22 23 24 25 26 27 28 29 30 31 32 33 34 35 36 37 38 39 40 41 42 43 44 45 46 47 48 49 50
000
ASUS43 KIND 240309
RWRIN

WEATHER ROUNDUP FOR INDIANA
NATIONAL WEATHER SERVICE INDIANAPOLIS IN
1100 PM EDT FRI SEP 23 2016

NOTE: "FAIR" INDICATES FEW OR NO CLOUDS BELOW 12,000 FEET WITH NO
SIGNIFICANT WEATHER AND/OR OBSTRUCTIONS TO VISIBILITY.

* - STATION DOES NOT REPORT WEATHER SUCH AS PRECIPITATION OR FOG.

+ - STATION NOT QUALITY CONTROLLED BY THE NATIONAL WEATHER SERVICE.
    USE DATA WITH CAUTION...ESPECIALLY DEWPOINT AND RELATIVE
    HUMIDITY OBSERVATIONS.

INZ001>003-010>013-019-020-240400-
NORTHWEST INDIANA

CITY           SKY/WX    TMP DP  RH WIND       PRES   REMARKS
GARY /AIRPORT/ MOCLDY    72  70  94 N8        30.12
KNOX *+        PTCLDY    68  55  64 NE6       30.10S
LA PORTE +     CLOUDY    70  70 100 NE6       30.13R
MICHIGAN CITY+ CLOUDY    68  68 100 CALM      30.13R
MONTICELLO +   CLEAR     70  63  78 N3        30.08R
RENSSELAER +   CLEAR     68  66  94 N5        30.10S FOG
VALPARAISO     MOCLDY    68  66  93 NE5       30.12R

$$

LMZ046-743>745-240400-
SOUTHERN LAKE MICHIGAN

STATION/POSITION TIME  TEMP    WIND        PRES    WAVE
                       AIR SEA DIR/SP/G            HT
                 (UTC) (F)     (DEG/KT/KT) (MB)    (FT)
BURNS HARBOR     0302   69      60/ 12/ 17 1020.3R
MICHIGAN CITY    0200   69      30/ 14/ 16   N/A
5NW MICH CITY    0300   70 71   60/ 12/ 16   N/A     4

$$

INZ004-005-014>016-021>024-240400-
NORTH CENTRAL INDIANA

CITY           SKY/WX    TMP DP  RH WIND       PRES   REMARKS
GOSHEN         CLOUDY    67  61  81 NE14      30.13R
LOGANSPORT +   CLEAR     70  64  83 CALM      30.10R
PERU/GRISSOM   CLEAR     69  67  94 E7        30.08S
ROCHESTER +    CLEAR     70  70 100 NE5       30.11R FOG
SOUTH BEND     CLOUDY    67  63  87 NE7       30.14R
WARSAW +       CLOUDY    68  61  77 NE7       30.12R

$$

INZ006>009-017-018-025>027-240400-
NORTHEAST INDIANA

CITY           SKY/WX    TMP DP  RH WIND       PRES   REMARKS
ANGOLA *+      CLOUDY    64  55  72 NE5       30.14S
AUBURN +       MOCLDY    68  63  83 N7        30.13R
FORT WAYNE     MOCLDY    70  65  84 NE10      30.12R
HUNTINGTON +   CLEAR     68  67  96 N3        30.11R
KENDALLVILLE + CLOUDY    67  64  90 NE8       30.13S

$$

INZ028-029-035-036-043>045-051>053-240400-
WEST CENTRAL INDIANA

CITY           SKY/WX    TMP DP  RH WIND       PRES   REMARKS
CRAWFORDSVL +  CLEAR     65  65 100 N3        30.09R
GREENCASTLE +  CLEAR     70  70 100 N3        30.09R
LAFAYETTE      CLEAR     73  67  81 NE6       30.08R
TERRE HAUTE    CLEAR     68  65  90 CALM      30.07R

$$

INZ030>032-037>040-046>048-054>057-064-065-240400-
CENTRAL INDIANA

CITY           SKY/WX    TMP DP  RH WIND       PRES   REMARKS
FISHERS *+     CLEAR     73  68  83 CALM      30.09R
GREENWOOD *+   MOCLDY    73  68  83 CALM      30.08S
INDIANAPOLIS   PTCLDY    74  66  76 W7        30.07S
-EAGLE CREEK   CLEAR     76  69  79 NW5       30.07R
MARION +       CLEAR     68  64  86 NE3       30.11R
MT COMFORT *+  PTCLDY    72  66  83 N6        30.09R
SHELBYVILLE    CLEAR     73  65  75 N5        30.07R
ZIONSVILLE +   CLEAR     70  65  84 E3        30.10R

$$

INZ033-034-041-042-049-050-058-059-240400-
EAST CENTRAL INDIANA

CITY           SKY/WX    TMP DP  RH WIND       PRES   REMARKS
MUNCIE         CLEAR     70  65  84 CALM      30.10R

$$

INZ060-061-067>069-081>083-085>088-240400-
SOUTHWEST INDIANA

CITY           SKY/WX    TMP DP  RH WIND       PRES   REMARKS
EVANSVILLE     CLEAR     73  67  81 CALM      30.05S
HUNTINGBURG *+   N/A     70  64  83 CALM      30.06S
WASHINGTON +   CLEAR     68  68 100 MISG      30.05S

$$

INZ062-063-066-070>080-084-089>092-240400-
SOUTH CENTRAL AND SOUTHEAST INDIANA

CITY           SKY/WX    TMP DP  RH WIND       PRES   REMARKS
BLOOMINGTON    CLEAR     65  63  93 CALM      30.07S
MADISON *+     CLEAR     68  64  88 CALM      30.09S
NORTH VERNON + CLEAR    N/A N/A N/A CALM      30.08S
SEYMOUR +      CLEAR     70  66  88 CALM      30.06S

$$





USA.gov is the U.S. government's official web portal to all federal, state and local government web resources and services.